Regional Weather Roundup
Issued by NWS

Home | Current Version | Previous Version | Graphics & Text | Print | Product List | Glossary On
Versions: 1 2 3 4 5 6 7 8 9 10 11 12 13 14 15 16 17 18 19 20 21 22 23 24 25 26 27 28 29 30 31 32 33 34 35 36 37 38 39 40 41 42 43 44 45 46 47 48 49 50
000
ASUS43 KDTX 070101
RWRMI
MICHIGAN HOURLY REGIONAL WEATHER ROUNDUP
NATIONAL WEATHER SERVICE DETROIT/PONTIAC MI
900 PM EDT MON JUL 06 2015

NOTE: "FAIR" INDICATES FEW OR NO CLOUDS BELOW 12,000 FEET WITH NO
SIGNIFICANT WEATHER AND/OR OBSTRUCTION TO VISIBILITY.

MIZ047>049-052>055-059>063-066>070-074>076-081>083-070200-
SOUTHEAST LOWER MICHIGAN

CITY           SKY/WX    TMP DP  RH WIND       PRES   REMARKS
ADRIAN         PTCLDY    77  66  68 S7        29.94F
ALMA           CLOUDY    79  66  65 S7        29.87F
ANN ARBOR      PTCLDY    76  63  64 S5        29.92F
BAD AXE        CLEAR     73  59  60 S8        29.90F
CARO           CLEAR     75  63  64 SE6       29.89F
DETROIT CITY   CLEAR     78  60  53 S10       29.93F
DETROIT        MOCLDY    77  64  64 SE7       29.94F
FLINT          PTCLDY    79  63  57 S9        29.90F
GROSSE ILE     PTCLDY    73  70  88 SE9       29.93F
HILLSDALE      MOCLDY    78  67  68 CALM      29.94F HAZE
HOWELL         PTCLDY    76  63  64 S8        29.92F

CITY           SKY/WX    TMP DP  RH WIND       PRES   REMARKS
JACKSON        PTCLDY    77  66  68 S9        29.91F
LAMBERTVILLE   PTCLDY    80  62  53 S3        29.95F
LANSING        MOCLDY    79  65  62 S12       29.90S HAZE
LAPEER         FAIR      74  59  59 S6        29.91F
MASON          PTCLDY    74  65  71 CALM      29.91F
MONROE         PTCLDY    77  65  67 S6        29.93F
MT. CLEMENS    PTCLDY    72  65  81 S8        29.91F
PONTIAC        PTCLDY    78  61  55 S8        29.92F
PORT HOPE        N/A     75  61  61 S6        29.87F
PORT HURON     PTCLDY    72  59  64 S6        29.94F
TRI CITIES     PTCLDY    80  64  58 S10       29.87F
MIDLAND        FAIR      80  64  59 S6        29.86S
TROY           CLEAR     80  60  50 S7        29.94F
SAGINAW HB     PTCLDY    77  61  57 S7        29.87F
$$
MIZ043>046-050>051-056>058-064>065-071>073-077>080-070200-
SOUTHWEST LOWER MICHIGAN

CITY           SKY/WX    TMP DP  RH WIND       PRES   REMARKS
BATTLE CREEK   CLOUDY    80  66  62 S12       29.90F
BENTON HARBOR  CLOUDY    80  67  64 S9        29.86F
BIG RAPIDS     CLOUDY    78  64  61 CALM      29.85F
COLDWATER      MOCLDY    77  65  65 S3        29.92F
FREMONT        FAIR      78  66  66 S3        29.84F HAZE
HOLLAND        CLOUDY    81  68  64 S8        29.85F
GRAND RAPIDS   CLOUDY    79  66  64 S9        29.86F HAZE
IONIA          FAIR      80  65  60 S9        29.87F
KALAMAZOO      CLOUDY    79  66  64 S8        29.89F
LUDINGTON      CLOUDY    76  67  72 SW15G24   29.83R
MARSHALL       MOCLDY    78  66  66 S6        29.91S
MOUNT PLEASANT CLOUDY    80  64  59 S6        29.86S
MUSKEGON       CLOUDY    79  67  66 S9        29.84F
SOUTH HAVEN    CLOUDY    81  67  64 S10       29.85F
$$
MIZ016>042-070200-
NORTHERN LOWER MICHIGAN

CITY           SKY/WX    TMP DP  RH WIND       PRES   REMARKS
ALPENA         PTCLDY    79  63  57 S9        29.83F
BEAVER ISLAND  HVY RAIN  64  62  94 SW12G17   29.78F
BELLAIRE       CLOUDY    81  62  53 S7        29.79F
CADILLAC       CLOUDY    78  65  65 S10       29.84F
CHARLEVOIX     CLOUDY    79  63  57 SW8       29.81F
FRANKFORT      CLOUDY    76  62  61 S12G26    29.80S
GAYLORD        CLOUDY    78  63  59 S12       29.84S HAZE
GRAYLING       CLOUDY    78  64  63 S7        29.85F
HARBOR SPRINGS CLOUDY    78  64  61 S6        29.78F
HOUGHTON LAKE  CLOUDY    77  64  64 S8        29.86S
MANISTEE       CLOUDY   N/A N/A N/A SW15G21   29.81S
OSCODA         CLEAR     78  62  57 S9        29.85F
PELLSTON       CLOUDY    74  63  68 NW7       29.80R HAZE
ROGERS CITY    CLOUDY    78  65  62 S6        29.82R
TRAVERSE CITY  CLOUDY    81  64  56 VRB7      29.78S
$$
MIZ007>008-015-070200-
EASTERN UPPER MICHIGAN

CITY           SKY/WX    TMP DP  RH WIND       PRES   REMARKS
KINROSS        CLOUDY    68  68 100 W6        29.80R
MACKINAC ISLAN CLOUDY    66  65  94 NW7       29.80S FOG
NEWBERRY       CLOUDY    65  65  99 W8        29.79S FOG
S. S. MARIE    RAIN      69  66  90 W7        29.80R FOG
$$
MIZ004>006-011>014-085-070200-
CENTRAL UPPER MICHIGAN

CITY           SKY/WX    TMP DP  RH WIND       PRES   REMARKS
MANISTIQUE     DRIZZLE   56  55  95 N12       29.81R
ESCANABA       CLOUDY    57  55  94 N13G20    29.80F
MENOMINEE      CLOUDY    72  66  83 SW9       29.73F
SAWYER-GWINN   RAIN      55  54  94 N13       29.86S
$$
MIZ001>003-009>011-084-070200-
WESTERN UPPER MICHIGAN

CITY           SKY/WX    TMP DP  RH WIND       PRES   REMARKS
IRON MOUNTAIN  CLOUDY    59  55  87 N15G23    29.84S FOG
HOUGHTON       FOG       54  53  97 NW8       29.89S VSB<1/4
COPPER HARBOR    N/A     51  50  96 N10       29.89R
IRONWOOD       CLEAR     57  55  94 NW3       29.90S VSB 1
$$

ABBREVIATIONS USED IN REMARKS
   TC - TEMPERATURE IN CELSIUS
  WCI - WIND CHILL INDEX
   HX - HEAT INDEX
  VSB - VISIBILITY



USA.gov is the U.S. government's official web portal to all federal, state and local government web resources and services.